Погода в Гиганте

Погода в Гиганте : погода сейчас, прогноз погоды и архив. Всё, что Вы хотите узнать о погоде в Гиганте!

Поиск расширенной информации на нашем сайте:

Другие новости

Новости СМИ2

Главная страница сайта

Новости сайта

03.07.2017

Напоминаем, что на нашем специализированном сайте Метеоцентр.Азия вы можете получить высокодетализированные автоматические прогнозы погоды по пунктам России, СНГ и мира в авиационном формате (включающие направление и скорость ветра, видимость, явления погоды, количество и форму облачности, нижнюю и верхнюю границу облачности).

Рекомендуем: приворот вуду, услуги черной ведьмы Софии Драгош

Погода в Гиганте - сегодня

Время (UTC), дата Ветер
(°,м/с) 
Видим.   Явления Облачность Т
(°С)
Тd
(°С)
f(%) Тe
(°С)
Pmin
(гПа)
dP
(гПа)
Po
(мм)
O2
(г/м3)
Тmin Tmax R s Состояние
почвы
12 15.06.18 090 (В) 20000 м    4/0 верхняя 
[Ci fib]
+33.3 +7.6 20 +33  1006  -0.6  748  267           
18 15.06.18 360 (С) 20000 м    5/0 верхняя 
[Ci fib]
+26.4 +11 38 +29  1006.7  0.8  748  273           
21 15.06.18 360 (С) 20000 м    ясно 
+22 +9.6 45 +23  1006.1  -0.7  748  277           
00 16.06.18 100 (В) 20000 м    ясно 
+21.6 +10 48 +23  1007.3  1.2  749  278           
03 16.06.18 100 (В) 20000 м    8/0 верхняя 
[Ci fib]
+22.3 +13.1 56 +28  1008.3  749  277  +19.9        сухая 
06 16.06.18 100 (В) 20000 м    9/0 верхняя 
[Ci fib]
+27.8 +11.5 36 +31  1009.3  1.1  750  272           
09 16.06.18 070 (В) 4{10}  20000 м    9/0 верхняя 
[Ci fib]
+31.7 +6.7 21 +32  1009.3  750  270           
15 16.06.18 070 (В) 3{11}  20000 м    9/0 верхняя 
[Ci sp]
+32.5 +4.3 17 +33  1008.2  750  269    +33.8       
18 16.06.18 010 (С) 20000 м    9/0 верхняя 
[Ci sp]
+24.5 +8 35 +25  1009.5  1.1  750  276           
21 16.06.18 050 (СВ) 20000 м    8/0 верхняя 
[Ci fib]
+23.6 +5.5 31 +24  1010.1  0.5  751  278           
00 17.06.18 040 (СВ) н/о    н/о 
+20 +3.1 33 +20  1011.3  1.1  752  282           
03 17.06.18 060 (СВ) 20000 м    4/0 верхняя 
[Ci fib]
+19 +1.1 30 +19  1011.7  0.4  752  283  +18        сухая 
06 17.06.18 080 (В) 6{11}  20000 м    9/0 верхняя 
[Ci]
+23.2 +1.3 24 +23  1011.7  0.1  752  279           
18 17.06.18 030 (СВ) 20000 м    9/5 600 м верхняя 
[Sc|Ci fib]
+22.6 -1.4 20 +23  1010.6  0.6  751  280           
21 17.06.18 020 (С) 20000 м    6/0 средняя, верхняя 
[Ac trans|Ci fib]
+19.6 -1.1 25 +21  1010.4  -0.3  751  282           
00 18.06.18 040 (СВ) 20000 м    8/0 средняя, верхняя 
[Ac trans|Ci fib]
+17.6 -0.7 29 +18  1009.9  -0.6  751  284           
03 18.06.18 060 (СВ) 20000 м    9/0 средняя, верхняя 
[Ac trans|Ci fib]
+18.1 +1.4 33 +19  1010  0.2  751  283  +17.1        сухая 
06 18.06.18 070 (В) 20000 м    9/0 средняя, верхняя 
[Ac trans|Ci fib]
+24.9 +8.3 35 +25  1010.1  0.3  751  276           
09 18.06.18 120 (ЮВ) 20000 м    8/1 1000 м верхняя 
[Cu hum|Ci fib]
+28.9 +3.6 20 +29  1009.6  -0.4  751  273           
18 18.06.18 010 (С) 20000 м    3/0 верхняя 
[Ci fib]
+22.3 +3.7 30 +22  1010.1  1.2  751  279           
21 18.06.18 тихо ()   20000 м    ясно 
+16 +8.1 59 +16  1010.8  0.5  751  285           
00 19.06.18 360 (С) 20000 м    ясно 
+15.6 +7.2 57 +16  1011.2  0.3  751  285           
03 19.06.18 тихо ()   20000 м    1/0 верхняя 
[Ci fib]
+16.6 +5.8 49 +17  1012.1  752  285  +13.5        сухая 
06 19.06.18 010 (С) 20000 м    ясно 
+27.3 +3.5 22 +27  1012.4  0.6  753  275           
09 19.06.18 080 (В) 20000 м    1/0 средняя 
[Ac cast]
+30.4 -1.1 13 +30  1012.1  -0.2  752  273           
Время (UTC), дата Ветер
(°,м/с) 
Видим.   Явления Облачность Т
(°С)
Тd
(°С)
f(%) Тe
(°С)
Pmin
(гПа)
dP
(гПа)
Po
(мм)
O2
(г/м3)
Тmin Tmax R s Состояние
почвы

Для получения пояснительной информации подведите курсор к названию столбца.

ПОГОДА в Гиганте - архив

Всё, что Вы хотите узнать о погоде в Гиганте - удобно и подробно!

Выберите нужную дату (начиная с 1 января 2015* года) и нажмите кнопку "Найти".
Будут отображены архивные сводки погоды по пункту Гигант, начиная с указанной даты.


Отображать данные в формате CSV (для использования в таблицах Excel)


Внимание! Наш архив погоды предназначен исключительно для личного некоммерческого использования в познавательных целях. Если Вам необходимы официальные справки о состоянии погоды (для производственных, юридических, коммерческих и т.п. целей), обращайтесь в органы Росгидромета.

*Примечание: данная дата относится к архиву по метеостанциям СССР (Россия, СНГ, Балтия).
Архив по метеостанциям Зарубежной Европы и Азии (кроме Китая) хранится 10 дней, по другим регионам земного шара (Китай, Африка, Америка, Австралия, Океания) - 1 день.

Гигант - район местоположения метеостанции


Название, широта, долгота, высота метеостанции:
Гигант 46.5°ш. 41.3°д. 79 м над ур. моря [Российская Федерация]

Дополнительная информация

В oтличие oт бoльшинства пoгoдных сайтoв мы публикуем пoдрoбную метеoинфoрмацию в детальнoм прoфессиoнальнoм фoрмате.

Характеристики температуры и влажнoсти вoздуха измеряются на высoте 2 м в тени вдали oт зданий и деревьев.
Скoрoсть ветра измеряется на высoте 10 м (на урoвне рoста челoвека скoрoсть ветра ниже в 1.5-2 раза). Если метеoстанция нахoдится в гoрoде или в лесу, тo скoрoсть ветра занижена на 2-4 м/с пo сравнению с oткрытым местoм. Скoрoсть ветра над акватoриями крупных рек и oзёр, а также на вершинах хoлмoв на 2-5 м/с выше, чем в oбычных услoвиях.
Атмoсфернoе давление в разных тoчках местнoсти мoжет значительнo oтличаться oт давления на метеoстанции, в зависимoсти oт услoвий рельефа (при пoдъёме на 10 м давление пoнижается примернo на 1 мм рт.ст.).